Temperature
6 6 6 6 6 6 6 6 6 5 5 6 6 5 5 5 5 5 5 5 5 5 5 5 5 5 5 4 4 4 4 4 4 4 4 4 4 4
5 6 6 5 5 5 5 5 5 5 5 5 5 5 5 5 5 5 5 5 5 5 5 5 5 5 4 4 4 4 4 4 4 4 4 4 4 4
5 5 5 5 5 5 5 5 5 4 4 5 5 4 4 5 5 5 5 5 5 5 4 4 4 4 4 4 4 4 4 4 4 4 4 4 4 4
4 4 4 5 4 4 4 4 4 4 4 4 4 4 4 4 4 4 4 4 4 4 4 4 4 4 4 4 4 4 4 4 4 3 3 3 3 4
4 4 4 4 4 4 4 4 4 4 4 4 4 4 4 4 4 4 4 4 4 4 4 4 4 3 3 3 3 3 3 3 3 3 3 3 3 3
3 3 3 3 4 3 3 3 3 3 3 3 3 4 4 4 3 4 4 4 4 4 4 4 3 3 3 3 3 3 3 3 3 3 3 3 3 3
3 3 3 3 3 3 3 3 3 3 3 3 3 3 3 3 3 3 3 3 3 3 3 4 3 3 3 3 3 3 3 3 2 2 3 3 3 3
2 2 2 2 2 2 2 2 2 2 2 2 2 2 2 2 2 2 2 2 2 3 3 3 3 3 3 3 3 3 2 2 2 2 2 2 2 2
2 2 2 2 2 2 2 2 2 2 2 2 2 2 2 2 2 2 2 1 2 2 2 2 3 3 3 3 3 2 2 2 2 2 2 2 2 2
1 1 1 2 1 1 1 1 2 2 1 1 1 1 1 1 1 1 1 1 2 2 1 1 2 2 3 3 2 2 2 2 2 2 2 2 2 2
0 1 1 1 1 1 1 1 1 1 1 1 1 1 1 1 1 1 1 1 1 1 1 1 1 1 2 2 2 2 2 2 2 2 2 2 2 2
-0 -0 0 0 0 0 0 1 1 1 1 1 1 1 1 1 1 0 0 0 -0 -0 0 0 1 1 1 2 2 2 2 2 2 2 2 2 2 2
-1 -1 -1 -1 -0 -0 -0 -0 0 0 1 1 1 1 1 1 1 0 -0 -0 -0 -0 0 -0 0 0 0 1 2 2 2 2 2 2 2 2 1 1
-1 -1 -1 -1 -1 -1 -1 -1 -0 -0 0 0 0 0 0 0 0 0 0 -0 -0 -0 -0 -0 -0 -0 -0 0 1 1 2 2 2 2 1 1 1 1
-2 -2 -2 -2 -1 -1 -1 -1 -1 -0 -0 -0 -0 -0 -0 -0 -0 -0 -0 -0 -0 -0 -0 -0 -0 -0 -0 0 0 1 1 1 1 1 1 1 1 1
-2 -2 -2 -2 -2 -2 -1 -1 -1 -1 -1 -1 -1 -1 -1 -1 -1 -1 -1 -0 -0 0 -0 -0 -0 -0 -0 0 0 0 0 1 1 1 1 1 1 1
-3 -2 -2 -2 -2 -2 -2 -2 -2 -1 -1 -1 -1 -1 -1 -1 -1 -1 -1 -1 -1 -1 -0 -0 -0 -0 0 -0 0 0 0 1 1 1 1 1 1 1
-3 -3 -3 -3 -3 -3 -3 -3 -2 -2 -2 -2 -2 -2 -2 -2 -2 -2 -2 -2 -1 -1 -1 -1 -0 -0 0 0 -0 -0 0 0 0 0 1 1 1 1
-4 -4 -4 -4 -4 -3 -3 -3 -3 -3 -3 -3 -2 -2 -2 -2 -2 -2 -2 -2 -2 -1 -1 -1 -1 -1 -1 -1 -0 -0 -0 -0 -0 0 0 0 1 1
-4 -4 -4 -4 -4 -4 -4 -4 -4 -3 -3 -3 -3 -3 -3 -3 -3 -3 -3 -3 -2 -2 -2 -1 -1 -1 -1 -1 -1 -0 -0 -1 -0 -0 -0 0 0 1
-5 -5 -5 -5 -5 -5 -4 -4 -4 -4 -4 -3 -3 -3 -4 -4 -4 -4 -3 -3 -3 -2 -2 -2 -1 -1 -1 -1 -1 -1 -1 -1 -1 -1 -1 -0 0 0
-5 -5 -5 -5 -5 -5 -5 -5 -4 -4 -4 -4 -4 -4 -4 -4 -4 -4 -4 -3 -3 -3 -2 -2 -2 -2 -1 -1 -1 -1 -1 -1 -1 -1 -1 -1 -1 -0
-6 -6 -6 -6 -6 -6 -5 -5 -5 -4 -4 -4 -4 -4 -4 -4 -4 -4 -4 -4 -3 -3 -3 -2 -2 -2 -2 -2 -2 -2 -2 -1 -1 -1 -1 -1 -1 -0
Wind_Speed
0 1 0 1 0 0 1 1 1 2 4 3 2 3 5 6 8 7 8 9 9 9 9 9 9 9 8 9 9 9 9 9 9 10 10 9 9 9
0 1 0 1 0 0 0 1 1 2 3 3 3 3 5 6 8 8 8 9 9 9 9 9 9 9 8 8 8 8 9 9 9 10 10 10 10 9
0 0 1 1 0 0 0 0 1 1 3 4 3 3 3 4 6 7 7 7 8 10 9 9 9 8 8 8 8 9 9 9 9 10 10 10 10 9
1 1 1 1 1 1 1 1 1 1 2 4 4 3 4 4 4 5 7 7 7 9 9 9 9 9 9 9 8 8 8 8 8 9 9 10 10 10
1 1 1 1 1 1 1 1 2 2 1 3 4 3 3 4 5 5 6 5 7 8 8 9 9 10 9 8 8 8 8 7 8 8 9 9 10 10
1 1 2 2 2 2 2 2 1 1 2 2 3 4 4 4 4 5 6 5 6 6 7 8 9 9 8 8 8 8 7 7 8 8 8 9 10 10
2 2 2 2 2 2 2 1 1 1 2 2 3 4 4 4 4 4 6 6 6 3 4 6 6 5 6 8 8 8 8 7 7 8 8 9 9 10
2 2 2 2 2 4 4 3 2 2 2 2 3 4 5 5 5 5 5 6 5 3 4 7 4 5 5 5 8 8 8 7 7 8 8 9 9 9
2 2 2 2 3 2 3 4 4 4 4 3 4 5 5 5 5 5 5 6 6 5 5 6 4 6 5 7 9 8 7 7 8 8 8 9 9 9
2 2 2 2 3 2 2 2 3 3 4 3 3 5 5 5 5 5 5 6 6 4 3 4 4 5 6 7 8 7 7 8 8 8 8 9 9 9
2 2 2 2 4 5 2 3 4 3 4 5 6 7 8 8 6 3 3 4 5 4 2 2 3 5 5 4 6 7 7 8 8 8 8 9 9 8
2 3 3 4 5 6 3 2 4 4 3 4 5 6 5 6 6 3 3 4 4 4 2 2 3 3 3 3 3 5 6 7 8 8 8 8 8 4
2 2 3 6 6 6 5 3 5 4 2 3 3 3 3 3 4 4 4 4 4 4 3 3 3 3 3 3 4 3 4 4 4 5 7 7 7 4
2 3 4 7 7 6 5 5 4 3 1 2 3 3 3 4 4 4 5 5 5 6 7 5 4 4 4 4 4 4 4 4 3 3 4 6 6 6
2 4 6 7 6 4 5 6 3 2 1 2 3 4 3 4 4 4 4 5 5 6 6 6 5 4 4 4 3 3 4 3 3 2 3 3 3 3
2 4 6 6 4 5 5 4 3 2 2 3 3 3 3 3 3 3 4 4 4 4 5 6 5 4 4 5 4 4 4 3 3 4 3 3 3 2
2 2 2 3 3 3 3 3 3 2 3 2 3 3 3 3 3 3 3 3 3 5 6 5 5 4 4 4 3 4 4 3 3 3 3 3 3 2
2 1 2 3 3 3 4 3 3 3 3 3 3 3 3 3 4 4 3 3 4 5 5 5 4 4 3 2 2 3 2 3 3 3 2 2 3 3
1 2 2 3 3 3 4 3 3 3 3 3 3 3 3 3 3 4 4 4 4 4 5 4 3 2 3 4 3 1 1 3 3 3 2 2 3 4
2 2 2 3 3 3 3 3 4 3 3 3 3 3 3 3 3 4 4 4 4 5 5 4 3 3 3 3 3 3 3 2 2 3 3 3 3 4
2 3 3 3 3 3 4 4 4 4 3 3 3 3 3 3 3 4 4 5 5 4 5 5 4 5 2 1 2 3 3 4 3 2 2 2 2 3
3 3 3 3 3 4 4 4 4 4 4 3 3 3 3 3 4 4 4 4 4 4 5 4 3 3 2 1 2 3 4 5 5 4 3 2 0 1
3 3 3 3 3 4 4 4 4 4 4 4 3 3 3 3 3 3 4 4 3 4 4 4 3 2 2 1 2 2 3 4 4 4 4 6 5 5
Wind_Direction
196 194 14 333 108 151 148 178 198 269 277 277 299 302 323 323 318 315 312 312 315 317 318 318 317 318 318 319 322 323 325 325 323 321 319 316 314 314
247 137 40 355 50 17 199 236 215 228 266 271 273 295 318 319 322 322 308 316 314 312 312 311 312 315 317 317 317 321 324 323 319 317 316 315 314 314
339 179 295 346 316 290 290 259 264 248 264 285 283 301 305 307 318 322 315 312 310 311 311 312 314 315 314 314 315 317 316 318 317 316 316 316 318 316
271 284 301 321 328 281 258 259 262 273 266 289 300 305 305 304 312 318 325 319 317 312 314 314 315 316 315 312 311 312 315 318 320 319 318 319 319 319
258 242 273 262 280 282 267 259 271 293 289 287 300 305 311 322 325 321 321 320 324 319 318 316 314 316 316 312 308 306 308 313 315 317 318 319 319 318
288 244 246 244 252 269 265 265 285 301 301 295 304 314 318 323 321 324 325 323 320 321 320 318 316 318 315 312 307 304 304 306 311 314 317 318 319 317
302 283 262 272 289 296 297 282 275 281 297 302 307 317 317 323 319 320 315 318 310 308 315 316 317 317 314 310 306 307 311 310 313 315 317 320 320 316
284 297 287 293 309 319 321 320 307 278 277 290 296 299 303 311 314 316 316 321 313 315 319 308 308 299 304 300 305 308 312 314 316 317 318 317 316 316
269 282 295 307 314 296 318 326 318 313 295 276 278 284 289 293 301 305 308 308 297 300 310 297 296 289 294 296 302 305 310 314 316 316 317 318 318 318
286 276 274 293 300 301 293 305 293 287 288 284 265 272 283 286 282 286 294 302 297 292 291 287 294 288 297 293 291 299 313 318 317 318 320 321 319 317
309 301 291 281 301 306 291 293 300 296 304 310 310 306 305 303 304 302 303 312 310 302 296 281 291 303 291 275 283 293 306 313 316 316 318 321 323 320
319 312 297 299 303 312 280 271 285 291 303 314 319 319 311 304 306 288 275 288 304 295 288 299 288 309 301 276 278 294 300 303 311 313 314 317 323 329
313 310 305 311 309 312 304 269 275 295 296 300 304 308 308 301 299 299 278 269 282 281 278 292 285 284 272 292 295 286 297 301 301 304 306 312 319 325
299 298 301 318 317 317 312 294 301 315 298 302 306 308 312 310 304 302 300 291 275 271 274 271 265 275 284 290 292 302 303 301 301 305 307 308 311 314
308 312 316 321 326 321 318 313 310 297 285 294 295 295 290 287 297 308 310 307 300 291 282 276 269 270 269 271 284 298 304 298 301 308 308 312 312 317
335 331 334 334 335 331 330 329 319 290 282 280 289 292 295 301 304 307 309 317 317 310 309 302 285 268 271 277 274 288 293 292 303 308 309 302 300 286
337 355 349 339 335 329 324 317 317 322 318 302 292 300 306 316 317 316 311 312 310 313 321 325 318 294 262 259 281 287 296 300 301 311 315 314 308 291
358 339 320 313 307 309 310 313 311 312 311 304 297 298 307 314 316 317 314 309 308 310 311 315 324 333 336 306 249 275 303 310 317 317 311 293 302 309
352 315 301 299 300 302 302 301 303 303 302 301 303 302 302 308 311 312 314 313 312 309 307 310 318 329 329 321 316 284 301 322 332 333 324 305 295 306
335 317 308 305 304 304 304 304 304 304 303 301 301 302 300 303 305 306 306 308 310 314 315 315 312 307 287 284 294 306 310 312 318 328 333 329 321 318
328 322 315 309 306 304 302 301 300 300 299 295 295 297 295 295 297 299 301 306 312 313 311 309 307 312 314 325 324 327 330 329 321 307 325 337 342 358
313 311 310 306 305 302 303 301 298 298 297 296 296 297 295 292 294 297 298 298 303 307 305 311 321 330 350 343 327 330 341 346 349 352 348 335 5 348
307 305 302 301 301 303 305 305 303 298 295 293 293 294 297 295 294 294 295 295 300 308 317 324 333 343 342 328 326 338 348 349 352 0 360 356 355 341
Height
1493 1493 1493 1493 1493 1493 1494 1494 1494 1491 1490 1488 1488 1487 1486 1484 1483 1481 1479 1477 1475 1474 1472 1469 1467 1465 1463 1461 1459 1457 1455 1454 1452 1450 1449 1447 1445 1444
1491 1491 1491 1490 1490 1491 1491 1491 1491 1490 1487 1486 1485 1484 1483 1481 1479 1478 1476 1474 1472 1470 1468 1466 1464 1462 1460 1458 1456 1454 1453 1451 1449 1447 1445 1444 1442 1441
1489 1488 1488 1488 1488 1488 1488 1488 1487 1487 1485 1483 1482 1481 1479 1477 1476 1474 1472 1470 1469 1467 1465 1463 1461 1459 1457 1455 1453 1451 1450 1448 1446 1444 1442 1440 1439 1438
1486 1486 1485 1485 1485 1485 1485 1485 1484 1483 1482 1479 1478 1477 1476 1474 1472 1470 1469 1467 1465 1464 1462 1460 1458 1456 1454 1452 1450 1448 1446 1444 1442 1440 1439 1437 1436 1434
1484 1483 1483 1483 1482 1482 1482 1481 1481 1480 1479 1477 1475 1473 1472 1471 1469 1467 1465 1464 1462 1460 1458 1456 1455 1452 1450 1448 1447 1445 1443 1441 1439 1437 1436 1434 1433 1431
1481 1480 1480 1480 1479 1479 1479 1478 1477 1477 1476 1474 1472 1470 1468 1467 1466 1463 1461 1460 1458 1456 1455 1453 1451 1449 1447 1445 1443 1442 1440 1438 1436 1434 1432 1431 1429 1427
1478 1477 1477 1477 1477 1476 1476 1475 1474 1473 1472 1471 1469 1467 1465 1464 1462 1460 1458 1456 1454 1453 1451 1449 1447 1445 1443 1441 1440 1438 1436 1435 1433 1431 1429 1427 1426 1424
1475 1474 1474 1474 1474 1473 1473 1472 1471 1470 1469 1468 1466 1464 1462 1461 1459 1457 1456 1453 1450 1450 1447 1445 1443 1441 1439 1438 1436 1434 1433 1431 1429 1428 1426 1424 1422 1420
1472 1471 1471 1470 1470 1469 1469 1469 1468 1467 1467 1466 1463 1462 1460 1459 1457 1455 1453 1452 1449 1447 1444 1441 1440 1437 1436 1434 1432 1431 1429 1427 1426 1424 1422 1420 1418 1417
1469 1468 1468 1467 1467 1467 1466 1466 1465 1464 1463 1462 1461 1459 1458 1457 1455 1453 1451 1448 1446 1445 1443 1439 1436 1434 1432 1430 1429 1427 1426 1424 1422 1421 1419 1417 1415 1413
1466 1465 1464 1464 1464 1464 1464 1462 1461 1460 1460 1459 1457 1456 1455 1453 1452 1450 1448 1445 1442 1441 1440 1437 1433 1431 1428 1427 1425 1424 1422 1421 1419 1417 1415 1414 1412 1410
1462 1462 1462 1462 1461 1461 1460 1459 1458 1457 1456 1455 1454 1453 1452 1450 1449 1447 1445 1443 1440 1438 1437 1435 1432 1429 1425 1423 1422 1421 1419 1417 1416 1414 1413 1411 1409 1408
1460 1459 1459 1459 1458 1457 1457 1456 1455 1454 1453 1452 1450 1449 1448 1447 1446 1444 1443 1441 1439 1437 1435 1433 1430 1428 1426 1421 1419 1418 1416 1414 1412 1411 1410 1408 1407 1405
1457 1457 1456 1455 1455 1454 1453 1452 1452 1451 1450 1449 1447 1446 1445 1444 1443 1441 1440 1438 1436 1435 1433 1431 1429 1426 1423 1420 1417 1414 1413 1412 1410 1409 1407 1406 1404 1403
1455 1454 1453 1452 1451 1450 1450 1449 1448 1448 1447 1445 1444 1443 1442 1441 1440 1438 1436 1435 1433 1432 1430 1428 1426 1424 1422 1419 1415 1413 1411 1409 1408 1406 1405 1403 1402 1400
1452 1451 1450 1449 1448 1448 1447 1446 1445 1445 1443 1442 1441 1440 1439 1438 1437 1435 1433 1431 1429 1428 1427 1425 1423 1421 1419 1416 1414 1411 1409 1407 1406 1404 1403 1402 1400 1399
1450 1449 1448 1447 1446 1445 1444 1443 1443 1442 1441 1440 1439 1438 1436 1435 1433 1432 1430 1428 1427 1425 1423 1422 1420 1418 1416 1414 1411 1409 1408 1406 1404 1403 1401 1400 1399 1397
1448 1446 1445 1444 1443 1442 1441 1440 1440 1439 1438 1437 1436 1435 1433 1432 1430 1429 1428 1426 1424 1422 1421 1419 1417 1415 1413 1411 1411 1408 1406 1404 1403 1401 1400 1398 1397 1396
1446 1444 1443 1442 1441 1440 1439 1438 1437 1436 1435 1434 1433 1432 1431 1429 1428 1426 1425 1424 1422 1421 1419 1417 1415 1413 1411 1409 1408 1408 1405 1403 1402 1400 1399 1397 1396 1395
1443 1442 1441 1440 1439 1438 1437 1436 1435 1434 1433 1432 1430 1429 1428 1427 1426 1424 1423 1422 1420 1418 1417 1415 1414 1412 1411 1410 1408 1406 1405 1402 1401 1399 1398 1396 1395 1395
1440 1439 1438 1437 1437 1435 1434 1433 1432 1431 1430 1429 1428 1427 1426 1425 1423 1422 1421 1420 1418 1417 1415 1414 1413 1412 1410 1409 1407 1405 1404 1402 1400 1399 1397 1395 1394 1393
1437 1436 1435 1434 1433 1432 1431 1430 1429 1428 1427 1426 1425 1424 1423 1422 1421 1420 1419 1418 1417 1415 1414 1412 1411 1410 1409 1407 1405 1404 1402 1402 1401 1399 1397 1396 1394 1393
1434 1433 1432 1431 1430 1429 1428 1427 1426 1426 1425 1424 1423 1422 1421 1420 1419 1418 1417 1416 1415 1414 1412 1411 1410 1409 1408 1406 1405 1404 1402 1401 1400 1399 1398 1396 1395 1394